SCP
-0 0 0 0 0 -0 -0 -0 -0 -0 0 -0 -0 -0 0 -0 -0 0 0 0 0 0 0 0 0 0 0 0 -0 -0 0 0 0 -0 -0 0 0 -0 0 0 0 -0 -0
-0 -0 0 0 -0 -0 -0 -0 -0 -0 -0 -0 0 -0 -0 -0 0 0 0 0 0 0 0 0 -0 -0 -0 -0 -0 -0 0 0 0 -0 -0 0 -0 -0 -0 0 0 -0 -0
-0 0 0 -0 -0 -0 -0 -0 -0 0 0 0 -0 0 -0 0 0 -0 -0 -0 0 0 -0 -0 -0 -0 -0 -0 -0 -0 -0 -0 0 -0 0 0 -0 0 -0 -0 -0 0 0
-0 0 0 -0 -0 -0 -0 -0 -0 0 0 0 -0 0 0 0 0 0 -0 -0 0 -0 -0 -0 -0 -0 -0 -0 -0 -0 -0 0 0 0 0 0 0 0 -0 -0 -0 0 0
0 0 -0 -0 -0 -0 -0 -0 -0 0 0 0 0 -0 0 -0 -0 0 -0 0 -0 0 -0 -0 -0 -0 -0 0 0 -0 -0 -0 0 0 0 0 0 -0 0 0 0 0 0
0 0 0 -0 -0 -0 -0 -0 -0 0 0 0 0 0 -0 -0 -0 0 -0 -0 -0 0 -0 -0 -0 -0 0 0 0 0 -0 0 -0 0 0 -0 0 0 0 0 0 0 0
0 0 0 -0 -0 -0 -0 -0 0 0 0 0 0 0 0 -0 -0 0 0 0 -0 0 0 -0 -0 0 0 0 -0 -0 0 0 0 0 0 0 0 0 0 0 0 0 0
0 0 0 0 -0 -0 -0 -0 0 0 0 0 0 0 0 0 0 -0 -0 -0 -0 -0 0 0 -0 -0 -0 -0 -0 0 0 0 0 0 0 0 0 0 0 0 0 0 0
0 0 0 -0 -0 -0 -0 -0 -0 0 0 0 0 0 -0 -0 0 0 -0 -0 -0 0 -0 0 -0 -0 -0 0 0 0 0 0 0 0 0 0 0 0 0 0 0 0 0
0 -0 -0 0 0 0 0 -0 -0 0 0 0 -0 -0 -0 -0 -0 -0 -0 -0 -0 -0 -0 -0 -0 -0 0 0 0 0 0 0 0 0 0 0 0 0 0 0 -0 -0 -0
0 0 0 0 0 -0 -0 0 0 0 0 0 0 0 0 0 0 -0 0 -0 -0 0 -0 -0 -0 -0 0 0 0 0 0 0 0 0 0 -0 -0 -0 0 -0 -0 -0 -0
0 0 0 0 0 0 0 0 -0 -0 -0 0 0 -0 0 0 0 0 0 0 0 0 0 -0 -0 -0 0 0 0 0 0 0 0 0 0 0 -0 -0 -0 -0 -0 -0 -0
0 0 0 0 0 0 0 0 0 -0 0 0 -0 -0 0 -0 -0 0 0 0 0 0 0 -0 -0 -0 0 0 0 0 0 0 0 0 0 0 -0 -0 -0 -0 -0 -0 -0
0 -0 -0 -0 -0 -0 0 -0 -0 -0 -0 -0 -0 -0 -0 0 0 0 0 0 0 0 0 0 -0 -0 -0 0 0 0 0 0 0 0 0 0 -0 -0 -0 -0 -0 -0 -0
0 0 0 -0 -0 -0 -0 -0 -0 -0 -0 -0 -0 -0 -0 -0 -0 -0 0 0 0 0 0 0 0 0 0 0 0 0 0 0 0 0 0 0 -0 -0 -0 -0 -0 -0 -0
-0 -0 -0 -0 0 -0 -0 -0 -0 -0 -0 -0 -0 -0 -0 -0 0 -0 -0 0 0 0 0 0 0 0 0 0 0 0 0 0 -0 0 0 0 0 0 -0 -0 -0 -0 -0
-0 -0 -0 -0 -0 -0 -0 0 -0 -0 -0 -0 -0 -0 -0 -0 -0 0 0 0 -0 -0 0 0 0 0 -0 0 0 0 0 0 0 0 0 0 0 0 0 -0 -0 0 -0
-0 -0 -0 -0 -0 -0 -0 0 0 -0 -0 -0 -0 -0 -0 -0 -0 -0 0 0 0 -0 0 0 0 0 0 0 0 0 0 0 0 0 0 0 0 0 -0 -0 -0 -0 0
-0 -0 -0 -0 -0 -0 -0 0 0 0 0 0 -0 -0 -0 -0 -0 -0 -0 0 -0 0 -0 0 0 0 0 0 0 0 0 0 0 0 0 0 0 0 0 0 0 0 0
-0 -0 -0 -0 -0 -0 -0 0 0 0 0 0 0 0 0 0 -0 -0 0 -0 0 0 0 0 0 0 0 0 0 0 0 0 0 0 0 0 0 0 0 0 0 0 0
-0 -0 -0 -0 -0 -0 -0 -0 -0 -0 0 0 0 0 0 0 0 0 0 0 0 0 -0 -0 -0 -0 0 0 0 0 0 0 0 0 0 0 0 0 0 0 0 0 0
-0 -0 -0 -0 -0 0 0 0 0 0 0 0 0 0 -0 -0 -0 0 0 0 0 0 0 -0 -0 0 0 0 1 1 0 0 0 0 0 0 0 0 0 0 0 0 0
-0 -0 -0 -0 -0 0 0 0 0 0 0 0 0 0 0 0 0 0 0 0 0 0 0 0 0 0 0 1 0 1 0 0 0 0 0 0 0 0 0 0 0 0 0
0 0 -0 0 0 0 0 0 1 1 0 1 0 0 0 0 0 0 0 0 0 1 0 0 0 0 1 0 1 0 0 0 0 0 0 0 0 0 0 0 0 0 0
-0 -0 -0 -0 -0 -0 0 0 0 1 1 1 1 0 0 0 0 0 0 0 1 1 1 1 1 1 1 1 1 1 0 0 0 0 0 0 0 0 0 0 0 0 0
0 0 0 0 0 0 0 1 1 1 1 1 0 1 1 1 1 1 1 1 1 1 1 2 1 1 2 1 1 1 2 1 0 0 0 0 0 0 0 0 0 0 0
Wind_Speed_500mb
34 34 36 36 39 42 48 47 50 51 52 54 53 50 51 51 48 39 30 27 25 27 27 26 24 20 26 26 23 23 22 19 21 25 26 27 26 24 23 25 30 25 22
38 38 37 38 39 43 48 49 48 47 51 53 51 49 50 50 41 32 25 25 25 23 22 23 22 21 21 19 20 23 23 24 23 23 22 25 25 24 23 22 23 21 17
41 40 35 36 40 44 44 48 52 52 52 48 47 47 45 40 32 29 29 27 23 22 20 18 17 21 23 24 26 28 28 30 27 23 20 21 20 22 22 19 21 19 18
40 42 38 37 40 41 44 44 46 56 50 48 47 42 38 34 31 29 27 25 22 19 18 18 19 21 25 29 30 28 26 28 28 24 21 21 18 20 19 20 20 18 19
40 39 39 39 39 40 42 44 46 52 49 48 44 38 35 34 33 29 25 22 19 17 17 17 20 24 28 30 29 26 26 28 25 22 20 18 17 16 15 15 13 14 15
38 34 35 36 38 38 40 43 43 45 46 48 42 36 36 35 32 27 22 19 17 17 15 17 21 25 29 31 26 24 23 23 22 22 21 20 16 13 12 12 12 12 11
39 35 36 34 36 36 37 43 44 45 49 49 39 34 33 30 25 21 19 15 14 15 12 17 23 28 25 18 20 20 22 20 19 18 19 19 15 13 10 8 7 7 8
37 34 34 33 32 31 35 41 41 39 45 47 36 30 27 24 20 15 10 9 10 14 11 15 21 20 18 13 14 16 17 16 14 15 15 15 13 12 9 6 5 5 4
36 35 30 26 29 29 35 38 39 39 45 44 40 31 25 19 16 10 10 11 10 8 7 11 16 17 16 13 10 15 13 12 12 13 13 11 9 9 5 2 4 6 5
35 32 31 29 28 32 33 33 36 39 44 42 39 30 23 19 13 6 7 9 7 6 6 8 13 15 15 12 10 9 5 6 6 7 10 7 5 4 2 2 4 4 5
36 33 31 30 28 30 35 33 33 41 41 41 36 29 23 19 12 6 7 7 7 5 4 11 14 19 19 16 14 9 3 7 6 3 5 6 6 3 2 5 6 8 7
32 38 34 30 29 28 31 32 31 37 42 41 37 32 28 22 17 13 12 10 10 5 9 12 16 22 25 25 20 14 7 8 8 4 7 12 9 6 5 7 11 11 12
35 33 36 36 34 30 32 34 32 29 35 40 39 36 32 27 23 20 19 15 12 14 12 13 18 19 24 28 28 21 16 13 11 12 12 12 9 9 8 7 11 14 13
41 36 34 34 34 33 31 33 32 31 30 34 35 35 34 31 31 26 24 23 21 21 20 22 20 21 24 29 34 29 24 21 18 18 17 13 7 6 9 10 11 13 15
39 36 36 36 36 33 32 31 30 29 29 29 30 32 31 31 32 30 28 26 25 25 23 23 25 24 25 28 33 35 31 28 27 23 24 19 14 10 10 12 15 14 14
37 32 31 33 34 33 32 32 32 30 29 29 31 32 34 34 33 34 32 27 25 22 24 25 26 27 26 28 31 37 37 35 34 28 20 19 20 18 18 16 16 17 16
32 30 27 28 34 34 32 31 32 32 32 34 33 33 35 36 35 36 34 30 30 29 28 30 29 32 31 32 36 38 41 42 39 33 26 24 26 25 18 17 15 18 18
32 30 27 26 29 31 33 33 33 34 34 34 34 35 36 37 37 38 38 33 30 37 37 36 33 33 35 37 40 41 44 47 48 42 39 31 29 28 27 25 23 20 18
34 32 30 28 25 25 29 33 36 37 38 38 39 39 37 38 40 40 40 38 36 41 42 40 40 42 38 37 41 44 46 50 52 52 51 46 43 36 35 36 30 28 26
35 36 34 34 28 24 23 29 36 39 40 41 41 42 41 41 43 43 44 42 39 42 46 45 44 44 44 44 43 42 48 52 57 60 60 55 52 47 44 42 41 38 35
33 30 30 33 32 34 36 30 27 35 35 36 40 36 38 48 47 48 48 48 46 50 51 45 48 50 52 48 50 46 45 53 57 60 63 63 60 60 55 54 53 48 42
34 29 24 26 33 36 43 46 45 40 43 40 43 42 45 47 48 57 59 59 55 56 58 54 52 54 54 51 49 33 39 39 38 53 61 62 64 62 59 64 61 60 57
34 24 19 19 22 29 35 41 47 52 56 55 51 47 53 53 50 52 56 62 66 62 62 63 58 58 57 52 50 43 24 26 26 24 35 47 57 62 65 60 63 61 58
32 27 18 17 21 28 34 37 41 47 56 54 57 60 50 48 50 55 57 60 63 66 71 67 65 64 60 63 60 63 59 50 39 32 23 18 27 37 46 52 50 49 47
28 29 26 23 22 22 24 28 36 45 50 55 58 57 58 55 57 51 57 62 60 66 73 76 75 72 69 69 65 59 61 58 58 57 58 44 35 38 41 39 28 45 52
28 24 23 24 23 19 16 21 28 35 45 51 56 64 65 63 61 59 54 57 61 66 69 74 76 85 83 77 74 70 70 47 44 48 53 56 54 49 44 42 47 50 51
Wind_Direction_500mb
151 145 138 140 135 134 145 136 134 134 135 134 129 130 133 132 133 132 123 115 111 112 112 117 116 109 114 110 108 106 104 99 100 102 103 108 105 107 103 108 95 98 100
147 150 145 149 136 133 140 140 139 136 137 135 130 128 130 130 130 127 126 123 119 116 112 118 118 116 119 114 111 109 108 108 104 107 106 105 104 102 105 107 108 110 109
143 146 146 146 137 141 139 139 139 136 139 137 133 129 129 129 127 123 125 120 117 115 116 123 121 115 120 119 112 108 107 106 103 94 99 108 107 109 105 105 104 97 105
145 147 151 146 140 142 145 143 140 141 142 138 133 132 131 130 130 128 126 120 116 118 120 122 121 119 124 122 116 110 108 109 106 97 97 101 108 112 109 109 103 99 90
141 145 152 152 149 146 147 146 144 149 148 144 138 135 130 128 125 120 121 118 117 120 115 121 120 125 125 121 113 106 107 111 111 104 94 103 105 107 114 118 110 105 89
141 143 146 151 152 149 150 154 152 154 156 153 142 136 129 126 126 127 121 115 117 116 109 120 127 129 125 119 107 104 105 110 110 104 98 97 106 101 105 113 114 117 102
144 144 146 149 152 150 151 158 160 159 165 162 153 144 141 138 135 131 128 127 125 122 121 129 133 136 133 124 116 108 106 105 105 106 104 102 102 102 113 126 122 126 118
146 145 148 152 151 152 156 162 166 165 165 170 168 156 149 144 139 122 104 113 117 134 137 147 144 144 142 133 124 125 116 102 100 105 106 102 102 103 112 130 147 157 147
149 144 147 153 157 154 157 162 167 170 170 174 175 167 163 156 153 137 118 121 122 142 175 170 168 164 161 146 137 127 122 113 107 98 94 94 100 104 97 117 193 200 209
157 154 155 153 158 155 156 162 169 173 174 175 175 177 182 180 177 152 149 149 158 156 214 211 204 204 193 176 161 157 156 153 139 100 77 72 77 103 139 168 248 215 228
161 161 161 162 163 163 165 164 166 175 177 179 183 189 196 200 210 204 186 190 183 195 240 241 229 228 221 211 202 202 173 201 195 110 33 14 19 357 289 261 235 248 236
162 166 167 169 169 169 173 172 174 180 189 192 197 205 210 217 225 227 222 220 212 211 258 251 248 241 236 227 222 219 220 207 212 268 316 325 318 320 298 285 275 258 259
172 171 173 177 177 179 182 184 186 189 199 209 215 222 225 229 233 245 246 251 260 254 251 260 250 251 244 234 228 225 229 224 246 282 297 297 295 300 298 292 287 279 262
185 184 183 183 187 187 187 192 199 202 206 211 217 224 231 239 245 247 253 266 270 270 267 257 260 257 255 237 228 230 237 245 258 281 298 265 259 283 285 290 287 288 283
194 195 195 193 194 195 196 200 204 212 218 222 224 231 237 242 246 251 255 267 278 278 273 265 259 256 257 246 232 233 237 246 256 276 291 256 248 254 274 299 287 287 290
199 205 207 208 206 207 209 212 216 219 223 229 235 238 241 246 251 257 263 270 277 286 281 280 271 258 257 248 241 238 239 245 252 267 273 246 251 259 285 296 287 282 286
200 208 215 219 218 219 223 225 229 233 235 236 239 243 247 250 254 258 262 262 265 281 279 277 272 269 262 254 246 242 243 244 248 255 259 257 244 253 274 290 294 281 278
214 219 228 230 231 230 234 236 238 243 243 245 246 247 247 251 255 257 259 257 257 268 273 269 272 271 267 261 257 252 247 246 246 253 254 251 252 253 266 276 277 287 288
227 233 238 244 248 247 245 247 248 249 250 252 251 248 249 255 256 256 258 258 260 259 264 268 270 272 272 271 266 259 254 251 250 251 255 256 257 259 258 263 269 272 276
234 240 243 248 250 251 254 253 252 254 254 255 255 254 255 257 260 259 257 255 258 259 263 265 268 272 275 270 267 265 263 261 258 255 255 257 259 257 256 256 261 265 267
240 247 253 253 255 253 251 250 258 257 257 259 257 261 271 264 263 258 258 259 258 261 264 265 268 266 266 268 267 268 271 270 265 261 260 257 256 258 258 256 255 260 265
238 241 249 260 257 257 257 259 264 269 269 262 271 266 267 272 274 266 262 261 262 263 263 260 260 263 264 262 261 268 274 276 271 264 261 260 261 259 262 260 259 258 261
234 233 244 252 249 253 265 269 270 270 270 276 278 273 286 269 274 273 269 265 263 263 261 262 258 258 259 262 261 251 262 265 279 277 270 264 259 261 263 262 266 258 261
231 227 241 258 256 261 265 271 276 281 279 281 293 277 292 280 273 277 269 268 266 263 263 259 261 259 256 258 263 258 254 253 263 279 278 287 270 260 263 263 263 261 261
223 223 256 254 254 259 269 276 281 282 283 283 287 288 290 286 286 281 273 272 267 266 264 260 257 257 255 255 255 256 261 259 256 253 266 267 268 261 268 271 279 260 256
217 223 222 231 248 251 262 269 279 285 289 290 290 289 288 285 285 283 276 274 271 271 271 266 260 255 255 256 255 255 254 246 245 246 254 263 267 269 265 265 268 264 258
Wind_Speed_850mb
34 34 36 36 39 42 48 47 50 51 52 54 53 50 51 51 48 39 30 27 25 27 27 26 24 20 26 26 23 23 22 19 21 25 26 27 26 24 23 25 30 25 22
38 38 37 38 39 43 48 49 48 47 51 53 51 49 50 50 41 32 25 25 25 23 22 23 22 21 21 19 20 23 23 24 23 23 22 25 25 24 23 22 23 21 17
41 40 35 36 40 44 44 48 52 52 52 48 47 47 45 40 32 29 29 27 23 22 20 18 17 21 23 24 26 28 28 30 27 23 20 21 20 22 22 19 21 19 18
40 42 38 37 40 41 44 44 46 56 50 48 47 42 38 34 31 29 27 25 22 19 18 18 19 21 25 29 30 28 26 28 28 24 21 21 18 20 19 20 20 18 19
40 39 39 39 39 40 42 44 46 52 49 48 44 38 35 34 33 29 25 22 19 17 17 17 20 24 28 30 29 26 26 28 25 22 20 18 17 16 15 15 13 14 15
38 34 35 36 38 38 40 43 43 45 46 48 42 36 36 35 32 27 22 19 17 17 15 17 21 25 29 31 26 24 23 23 22 22 21 20 16 13 12 12 12 12 11
39 35 36 34 36 36 37 43 44 45 49 49 39 34 33 30 25 21 19 15 14 15 12 17 23 28 25 18 20 20 22 20 19 18 19 19 15 13 10 8 7 7 8
37 34 34 33 32 31 35 41 41 39 45 47 36 30 27 24 20 15 10 9 10 14 11 15 21 20 18 13 14 16 17 16 14 15 15 15 13 12 9 6 5 5 4
36 35 30 26 29 29 35 38 39 39 45 44 40 31 25 19 16 10 10 11 10 8 7 11 16 17 16 13 10 15 13 12 12 13 13 11 9 9 5 2 4 6 5
35 32 31 29 28 32 33 33 36 39 44 42 39 30 23 19 13 6 7 9 7 6 6 8 13 15 15 12 10 9 5 6 6 7 10 7 5 4 2 2 4 4 5
36 33 31 30 28 30 35 33 33 41 41 41 36 29 23 19 12 6 7 7 7 5 4 11 14 19 19 16 14 9 3 7 6 3 5 6 6 3 2 5 6 8 7
32 38 34 30 29 28 31 32 31 37 42 41 37 32 28 22 17 13 12 10 10 5 9 12 16 22 25 25 20 14 7 8 8 4 7 12 9 6 5 7 11 11 12
35 33 36 36 34 30 32 34 32 29 35 40 39 36 32 27 23 20 19 15 12 14 12 13 18 19 24 28 28 21 16 13 11 12 12 12 9 9 8 7 11 14 13
41 36 34 34 34 33 31 33 32 31 30 34 35 35 34 31 31 26 24 23 21 21 20 22 20 21 24 29 34 29 24 21 18 18 17 13 7 6 9 10 11 13 15
39 36 36 36 36 33 32 31 30 29 29 29 30 32 31 31 32 30 28 26 25 25 23 23 25 24 25 28 33 35 31 28 27 23 24 19 14 10 10 12 15 14 14
37 32 31 33 34 33 32 32 32 30 29 29 31 32 34 34 33 34 32 27 25 22 24 25 26 27 26 28 31 37 37 35 34 28 20 19 20 18 18 16 16 17 16
32 30 27 28 34 34 32 31 32 32 32 34 33 33 35 36 35 36 34 30 30 29 28 30 29 32 31 32 36 38 41 42 39 33 26 24 26 25 18 17 15 18 18
32 30 27 26 29 31 33 33 33 34 34 34 34 35 36 37 37 38 38 33 30 37 37 36 33 33 35 37 40 41 44 47 48 42 39 31 29 28 27 25 23 20 18
34 32 30 28 25 25 29 33 36 37 38 38 39 39 37 38 40 40 40 38 36 41 42 40 40 42 38 37 41 44 46 50 52 52 51 46 43 36 35 36 30 28 26
35 36 34 34 28 24 23 29 36 39 40 41 41 42 41 41 43 43 44 42 39 42 46 45 44 44 44 44 43 42 48 52 57 60 60 55 52 47 44 42 41 38 35
33 30 30 33 32 34 36 30 27 35 35 36 40 36 38 48 47 48 48 48 46 50 51 45 48 50 52 48 50 46 45 53 57 60 63 63 60 60 55 54 53 48 42
34 29 24 26 33 36 43 46 45 40 43 40 43 42 45 47 48 57 59 59 55 56 58 54 52 54 54 51 49 33 39 39 38 53 61 62 64 62 59 64 61 60 57
34 24 19 19 22 29 35 41 47 52 56 55 51 47 53 53 50 52 56 62 66 62 62 63 58 58 57 52 50 43 24 26 26 24 35 47 57 62 65 60 63 61 58
32 27 18 17 21 28 34 37 41 47 56 54 57 60 50 48 50 55 57 60 63 66 71 67 65 64 60 63 60 63 59 50 39 32 23 18 27 37 46 52 50 49 47
28 29 26 23 22 22 24 28 36 45 50 55 58 57 58 55 57 51 57 62 60 66 73 76 75 72 69 69 65 59 61 58 58 57 58 44 35 38 41 39 28 45 52
28 24 23 24 23 19 16 21 28 35 45 51 56 64 65 63 61 59 54 57 61 66 69 74 76 85 83 77 74 70 70 47 44 48 53 56 54 49 44 42 47 50 51
Wind_Direction_850mb
151 145 138 140 135 134 145 136 134 134 135 134 129 130 133 132 133 132 123 115 111 112 112 117 116 109 114 110 108 106 104 99 100 102 103 108 105 107 103 108 95 98 100
147 150 145 149 136 133 140 140 139 136 137 135 130 128 130 130 130 127 126 123 119 116 112 118 118 116 119 114 111 109 108 108 104 107 106 105 104 102 105 107 108 110 109
143 146 146 146 137 141 139 139 139 136 139 137 133 129 129 129 127 123 125 120 117 115 116 123 121 115 120 119 112 108 107 106 103 94 99 108 107 109 105 105 104 97 105
145 147 151 146 140 142 145 143 140 141 142 138 133 132 131 130 130 128 126 120 116 118 120 122 121 119 124 122 116 110 108 109 106 97 97 101 108 112 109 109 103 99 90
141 145 152 152 149 146 147 146 144 149 148 144 138 135 130 128 125 120 121 118 117 120 115 121 120 125 125 121 113 106 107 111 111 104 94 103 105 107 114 118 110 105 89
141 143 146 151 152 149 150 154 152 154 156 153 142 136 129 126 126 127 121 115 117 116 109 120 127 129 125 119 107 104 105 110 110 104 98 97 106 101 105 113 114 117 102
144 144 146 149 152 150 151 158 160 159 165 162 153 144 141 138 135 131 128 127 125 122 121 129 133 136 133 124 116 108 106 105 105 106 104 102 102 102 113 126 122 126 118
146 145 148 152 151 152 156 162 166 165 165 170 168 156 149 144 139 122 104 113 117 134 137 147 144 144 142 133 124 125 116 102 100 105 106 102 102 103 112 130 147 157 147
149 144 147 153 157 154 157 162 167 170 170 174 175 167 163 156 153 137 118 121 122 142 175 170 168 164 161 146 137 127 122 113 107 98 94 94 100 104 97 117 193 200 209
157 154 155 153 158 155 156 162 169 173 174 175 175 177 182 180 177 152 149 149 158 156 214 211 204 204 193 176 161 157 156 153 139 100 77 72 77 103 139 168 248 215 228
161 161 161 162 163 163 165 164 166 175 177 179 183 189 196 200 210 204 186 190 183 195 240 241 229 228 221 211 202 202 173 201 195 110 33 14 19 357 289 261 235 248 236
162 166 167 169 169 169 173 172 174 180 189 192 197 205 210 217 225 227 222 220 212 211 258 251 248 241 236 227 222 219 220 207 212 268 316 325 318 320 298 285 275 258 259
172 171 173 177 177 179 182 184 186 189 199 209 215 222 225 229 233 245 246 251 260 254 251 260 250 251 244 234 228 225 229 224 246 282 297 297 295 300 298 292 287 279 262
185 184 183 183 187 187 187 192 199 202 206 211 217 224 231 239 245 247 253 266 270 270 267 257 260 257 255 237 228 230 237 245 258 281 298 265 259 283 285 290 287 288 283
194 195 195 193 194 195 196 200 204 212 218 222 224 231 237 242 246 251 255 267 278 278 273 265 259 256 257 246 232 233 237 246 256 276 291 256 248 254 274 299 287 287 290
199 205 207 208 206 207 209 212 216 219 223 229 235 238 241 246 251 257 263 270 277 286 281 280 271 258 257 248 241 238 239 245 252 267 273 246 251 259 285 296 287 282 286
200 208 215 219 218 219 223 225 229 233 235 236 239 243 247 250 254 258 262 262 265 281 279 277 272 269 262 254 246 242 243 244 248 255 259 257 244 253 274 290 294 281 278
214 219 228 230 231 230 234 236 238 243 243 245 246 247 247 251 255 257 259 257 257 268 273 269 272 271 267 261 257 252 247 246 246 253 254 251 252 253 266 276 277 287 288
227 233 238 244 248 247 245 247 248 249 250 252 251 248 249 255 256 256 258 258 260 259 264 268 270 272 272 271 266 259 254 251 250 251 255 256 257 259 258 263 269 272 276
234 240 243 248 250 251 254 253 252 254 254 255 255 254 255 257 260 259 257 255 258 259 263 265 268 272 275 270 267 265 263 261 258 255 255 257 259 257 256 256 261 265 267
240 247 253 253 255 253 251 250 258 257 257 259 257 261 271 264 263 258 258 259 258 261 264 265 268 266 266 268 267 268 271 270 265 261 260 257 256 258 258 256 255 260 265
238 241 249 260 257 257 257 259 264 269 269 262 271 266 267 272 274 266 262 261 262 263 263 260 260 263 264 262 261 268 274 276 271 264 261 260 261 259 262 260 259 258 261
234 233 244 252 249 253 265 269 270 270 270 276 278 273 286 269 274 273 269 265 263 263 261 262 258 258 259 262 261 251 262 265 279 277 270 264 259 261 263 262 266 258 261
231 227 241 258 256 261 265 271 276 281 279 281 293 277 292 280 273 277 269 268 266 263 263 259 261 259 256 258 263 258 254 253 263 279 278 287 270 260 263 263 263 261 261
223 223 256 254 254 259 269 276 281 282 283 283 287 288 290 286 286 281 273 272 267 266 264 260 257 257 255 255 255 256 261 259 256 253 266 267 268 261 268 271 279 260 256
217 223 222 231 248 251 262 269 279 285 289 290 290 289 288 285 285 283 276 274 271 271 271 266 260 255 255 256 255 255 254 246 245 246 254 263 267 269 265 265 268 264 258